Temperature
17 17 17 17 16 16 16 16 16 16 16 16 16 16 16 16 16 15 15 15 15 15 15 15 15 15 15 15 15 15 15 15 15 15 15 15 15 15 15 15 15 15 15
17 16 16 16 16 16 16 16 16 16 16 16 16 16 16 16 15 15 15 15 15 15 15 15 15 15 15 15 15 15 15 15 15 14 14 14 14 14 14 14 15 14 14
16 16 16 16 16 16 16 16 16 16 16 16 16 15 15 15 15 15 15 15 15 15 15 15 15 14 14 14 14 14 14 14 14 14 14 14 14 14 14 14 13 13 13
17 16 16 16 16 16 16 16 16 16 15 15 15 15 15 15 15 15 15 15 15 15 14 14 14 14 14 14 14 13 13 13 13 13 13 13 13 13 13 13 13 13 12
16 16 16 16 16 16 16 16 15 15 15 15 15 15 15 15 15 15 15 14 14 14 14 13 13 13 13 13 13 13 12 12 12 12 12 12 12 12 11 11 11 11 11
16 16 16 16 16 15 15 15 15 15 15 15 15 15 15 15 15 14 14 14 14 13 13 13 12 12 12 12 12 12 12 11 11 11 11 10 10 10 10 10 10 10 10
16 16 16 16 16 15 15 15 15 15 15 15 15 14 14 14 14 14 13 13 13 12 12 12 11 11 11 11 11 11 10 10 10 10 9 9 9 8 8 8 8 8 8
16 16 16 15 15 15 15 15 15 14 14 14 14 14 14 13 13 13 13 12 12 11 11 11 11 10 10 10 10 9 9 9 9 8 8 8 7 7 7 7 7 7 7
16 16 15 15 15 15 14 14 14 14 14 14 13 13 13 12 12 11 11 11 11 11 10 10 10 9 9 9 9 8 8 8 7 7 7 6 6 6 6 6 6 6 6
15 15 15 15 15 14 14 14 14 13 13 13 12 12 12 11 11 11 10 10 10 10 9 9 9 8 8 8 8 7 7 6 6 6 6 5 5 5 5 5 4 4 4
15 15 15 14 14 14 14 13 13 13 12 12 11 11 11 10 10 10 10 10 10 9 9 8 8 7 7 7 6 6 6 5 5 5 5 5 4 4 4 4 3 3 3
15 14 14 14 13 13 13 12 12 12 11 11 10 10 9 9 9 9 9 9 8 8 8 7 7 6 6 6 6 5 5 5 4 4 4 4 4 3 3 3 2 2 2
14 14 13 13 13 12 12 12 11 11 11 10 10 9 9 8 8 8 8 7 7 7 7 6 6 5 5 5 5 4 4 4 4 3 3 3 2 2 2 2 2 2 2
13 13 12 12 12 11 11 11 10 10 9 9 9 8 8 8 7 7 7 6 6 6 6 5 5 4 4 4 4 3 3 3 3 2 2 2 2 2 2 2 2 2 2
12 12 12 11 11 10 10 9 9 9 9 8 8 8 7 7 6 6 6 6 5 5 5 4 4 4 4 3 3 3 2 2 2 2 2 1 1 1 1 1 1 1 1
12 11 11 10 10 9 9 8 7 7 7 7 7 7 6 6 6 5 5 5 4 4 4 4 3 3 3 3 2 2 2 1 1 1 1 1 1 1 1 1 0 0 0
11 10 10 9 9 9 8 8 7 6 6 6 6 6 6 5 5 5 4 4 4 4 4 3 3 2 2 2 2 1 1 1 1 1 1 0 0 0 0 0 0 -0 -0
10 9 9 9 8 8 7 7 7 6 6 5 5 5 5 5 4 4 4 4 3 3 3 3 2 2 2 1 1 1 1 1 0 0 0 0 0 -0 -0 -0 -0 -1 -1
9 9 8 8 7 7 7 7 6 6 5 5 5 4 4 4 4 4 3 3 3 3 3 2 2 2 1 1 1 1 1 0 0 0 -0 -0 -0 -0 -0 -1 -1 -1 -1
8 8 8 7 7 7 6 6 6 6 5 5 5 4 4 4 3 3 3 3 3 2 2 2 2 1 1 1 1 1 0 0 0 0 -0 -0 -0 -1 -1 -1 -1 -1 -1
8 7 7 7 7 6 6 6 6 5 5 5 4 4 4 4 3 3 3 3 2 2 2 2 1 1 1 1 1 1 0 0 0 0 -0 -0 -0 -1 -1 -1 -1 -1 -1
7 7 7 7 6 6 6 6 5 5 5 4 4 4 3 3 3 3 3 2 2 2 2 1 1 1 1 1 1 1 0 0 0 0 -0 -0 -0 -1 -1 -1 -1 -1 -1
7 7 7 6 6 6 6 6 5 5 5 4 4 4 3 3 3 3 2 2 2 2 2 1 1 1 1 1 1 0 0 0 0 0 -0 -0 -0 -1 -1 -1 -1 -1 -1
7 7 7 7 6 6 6 5 5 5 4 4 4 4 3 3 3 3 2 2 2 2 2 1 1 1 1 1 1 1 1 0 0 0 -0 -0 -0 -1 -1 -1 -1 -1 -1
7 7 7 7 6 6 6 5 5 5 4 4 4 3 3 3 3 3 2 2 2 2 2 2 1 1 1 1 1 1 1 1 0 0 0 -0 -0 -0 -1 -1 -1 -1 -1
7 7 7 6 6 6 6 5 5 5 4 4 4 3 3 3 3 3 2 2 2 2 2 2 2 2 2 1 1 1 1 1 1 1 0 0 -0 -0 -0 -1 -1 -1 -1
Wind_Speed
6 6 7 7 7 7 7 7 7 6 7 7 7 6 6 6 6 6 5 6 6 5 4 4 3 3 3 2 2 2 1 2 2 1 1 3 4 6 7 8 7 7 7
6 6 7 7 7 7 7 7 7 7 7 7 7 7 6 6 6 6 6 6 6 5 5 5 4 4 4 3 3 3 2 1 2 1 1 3 4 5 5 6 8 8 8
6 7 7 7 7 7 7 6 6 7 7 7 7 7 6 6 6 6 6 6 6 6 6 6 5 5 5 4 4 3 2 2 2 1 1 2 3 4 4 5 7 7 8
7 7 7 7 7 7 7 7 7 7 7 7 6 6 6 7 7 7 8 9 9 8 8 7 7 7 6 5 5 4 4 4 4 3 2 3 3 3 4 4 5 5 4
7 7 7 7 7 7 7 7 7 7 7 7 7 6 6 6 6 9 9 10 10 10 9 9 9 11 10 8 7 6 6 5 4 4 3 3 4 4 4 4 4 4 3
7 7 6 7 8 8 8 8 8 8 7 8 8 8 7 6 10 12 12 10 10 11 10 9 10 11 14 16 16 14 10 7 5 4 3 4 4 4 4 4 4 4 3
6 7 7 8 8 8 9 10 10 9 9 9 9 9 10 10 13 15 15 12 12 10 10 8 8 9 10 10 13 16 16 16 11 6 6 5 4 4 4 5 4 4 3
7 7 8 9 9 9 10 10 10 9 10 9 9 10 11 11 15 17 18 14 13 11 10 9 9 8 8 9 11 12 12 11 11 9 7 6 6 5 4 3 3 4 3
7 7 8 10 11 11 11 10 10 10 11 10 10 11 12 11 14 15 15 11 11 11 9 9 9 9 10 11 11 10 10 8 12 15 14 13 14 14 10 5 5 5 4
7 8 8 10 11 12 12 11 10 11 12 12 11 10 11 11 12 14 13 10 11 9 8 9 12 11 11 11 9 9 8 6 6 8 10 11 12 13 13 8 5 5 4
8 9 10 11 12 13 12 11 12 12 12 12 12 10 10 11 12 13 12 9 9 9 8 7 8 13 14 13 10 8 7 5 6 6 6 7 7 8 9 9 6 4 4
11 11 11 11 12 13 14 12 12 13 13 12 12 11 8 8 10 12 14 12 11 10 9 7 8 14 15 13 10 10 10 8 6 6 6 6 6 7 7 9 8 7 5
12 12 12 13 12 11 13 14 12 10 10 9 9 9 8 7 9 14 15 15 14 10 9 13 13 14 13 11 13 13 9 7 6 6 6 5 5 6 7 7 8 10 9
13 13 13 14 13 11 9 10 10 10 10 10 10 9 8 8 7 7 8 10 13 12 10 12 14 14 11 10 9 8 7 6 6 5 5 5 5 6 6 6 6 8 7
13 13 13 13 14 13 11 9 9 8 8 11 9 9 10 8 6 8 9 8 8 8 8 7 7 6 7 6 6 6 5 5 5 5 5 6 7 7 7 7 6 7 6
13 12 11 12 12 12 13 13 17 14 16 15 13 11 9 10 12 14 14 14 13 12 9 7 6 5 5 4 4 4 4 4 5 5 5 6 7 7 8 7 7 7 8
14 13 12 12 12 12 12 13 13 13 17 16 14 14 13 13 14 15 15 15 13 11 8 6 5 4 3 3 2 2 3 3 4 5 5 6 6 7 7 8 8 8 8
14 15 14 11 11 11 11 11 11 11 10 8 9 12 14 14 14 14 14 11 7 6 5 4 3 3 2 1 1 1 2 3 4 5 5 6 6 7 7 8 8 9 9
13 11 11 11 10 10 10 10 10 11 10 9 7 7 11 12 12 10 8 6 5 4 3 3 2 2 1 0 1 1 2 3 4 5 5 6 6 6 7 7 8 10 9
11 17 14 11 11 10 9 10 9 9 9 8 8 7 5 6 5 4 4 4 4 3 3 2 2 1 1 0 1 2 2 3 5 5 5 6 6 6 7 8 8 9 9
11 13 16 12 9 9 9 9 9 9 8 7 6 5 7 6 5 5 4 3 3 3 2 2 1 1 1 1 2 2 4 4 4 5 5 5 6 6 6 7 8 8 9
10 9 9 9 8 8 8 8 8 8 8 8 6 5 7 5 5 4 3 2 2 2 3 3 2 2 3 3 3 3 4 5 5 5 5 5 6 6 7 7 8 9 9
9 10 9 8 8 9 9 8 8 8 8 7 6 5 5 4 4 3 3 2 2 3 3 4 4 4 5 5 5 5 4 5 5 5 5 6 6 6 7 8 10 11 10
9 10 10 8 8 8 8 8 7 7 7 6 5 5 4 4 4 3 3 3 3 4 4 5 6 7 8 8 7 7 8 8 7 7 7 6 7 7 7 8 9 10 10
8 8 8 8 8 7 7 7 7 7 6 6 5 5 4 4 4 4 4 4 5 5 6 7 7 8 10 10 10 9 10 11 10 8 7 7 7 8 8 9 9 10 10
8 8 7 7 7 7 7 7 7 6 6 5 5 5 5 5 5 5 5 5 5 6 7 8 9 11 11 11 11 12 12 12 12 10 8 7 7 7 8 8 11 10 10
Wind_Direction
170 169 164 165 161 161 166 170 167 161 158 158 160 158 157 155 154 150 150 147 138 128 126 124 112 104 97 83 82 89 97 140 177 277 356 8 23 22 20 26 28 28 25
158 156 159 155 154 159 164 165 159 155 155 155 151 150 153 153 154 154 151 144 139 131 122 114 105 101 91 81 82 79 75 94 162 189 10 15 26 17 17 25 25 27 28
154 154 156 156 157 160 159 154 149 144 140 140 144 148 146 142 139 139 136 127 118 111 108 106 100 100 89 79 75 72 62 68 84 122 40 18 18 17 12 19 22 16 28
160 159 162 164 161 156 150 145 142 137 134 134 139 142 140 134 129 125 120 115 108 98 93 91 88 90 91 85 74 62 63 64 64 71 53 27 16 5 19 12 7 3 9
160 165 168 162 154 148 143 138 133 131 134 131 126 119 116 118 125 125 120 116 109 100 90 86 84 85 83 80 79 68 67 68 65 62 52 37 23 15 10 357 358 346 359
162 165 158 154 151 146 141 133 124 118 116 113 111 108 102 105 113 117 117 110 105 101 93 84 79 74 78 76 74 70 68 70 69 67 56 46 27 10 358 4 2 1 349
154 152 152 153 147 142 134 123 121 115 109 104 104 103 99 97 103 106 108 107 101 96 92 88 83 75 76 80 75 69 63 62 67 82 70 49 27 6 6 15 14 4 336
154 149 144 140 134 127 123 120 117 113 111 106 102 101 99 96 99 102 102 99 95 90 87 87 87 77 78 87 84 75 67 59 60 66 71 56 43 27 26 18 353 339 318
152 148 144 140 134 130 126 122 118 113 107 102 101 102 102 99 98 103 104 101 95 86 80 78 83 81 80 86 86 81 70 56 57 63 64 57 50 44 39 33 20 7 350
152 145 137 133 130 128 125 120 114 111 108 103 96 94 99 98 93 97 102 106 101 94 83 77 77 82 78 78 82 81 74 55 46 47 45 43 41 39 38 36 21 8 350
129 125 123 121 122 121 117 116 115 111 106 102 97 89 88 92 90 93 100 109 113 105 94 83 76 81 79 76 76 77 79 73 59 52 45 37 31 27 23 20 16 5 346
122 119 117 117 120 121 119 114 111 111 108 105 101 90 79 78 85 90 91 95 104 103 99 94 89 85 81 75 74 72 70 65 58 50 41 29 19 11 1 356 355 350 323
118 115 113 109 109 115 118 117 112 107 108 110 107 103 93 84 80 80 86 91 93 96 98 99 92 85 78 71 67 65 60 56 52 45 33 19 2 350 350 348 348 347 336
115 113 112 109 105 101 103 109 113 114 113 111 110 109 104 95 91 91 92 93 91 94 95 90 83 75 72 67 62 57 54 54 53 41 22 4 356 355 357 353 346 345 339
110 110 109 108 109 101 89 84 96 94 117 121 119 119 116 107 102 110 112 106 107 109 104 88 78 73 69 63 59 54 48 43 38 25 14 4 357 353 350 349 344 342 337
110 108 108 110 110 109 104 88 68 82 87 90 99 107 98 109 115 108 105 105 106 109 98 92 86 81 78 71 64 51 39 30 22 13 7 360 352 347 342 341 340 336 330
111 111 110 111 113 113 113 111 103 80 72 79 90 100 109 114 111 110 106 99 95 97 96 100 99 93 85 73 59 42 20 5 2 2 358 352 346 341 338 337 337 334 330
107 110 112 112 113 113 115 116 117 117 108 88 78 94 106 109 109 111 110 99 85 83 104 112 110 103 95 79 47 17 356 352 353 350 346 343 341 337 335 334 332 330 326
109 112 111 111 110 111 112 113 114 115 116 116 109 94 96 100 95 95 98 104 115 112 111 114 122 126 121 81 356 343 339 337 337 336 337 337 338 335 332 330 326 323 323
110 118 117 116 116 115 115 117 119 121 123 124 125 127 124 112 108 97 92 109 117 121 125 134 148 168 193 279 311 317 322 327 332 333 334 334 333 330 326 324 323 323 322
117 122 121 118 121 125 126 128 130 131 131 130 133 142 142 132 132 131 128 130 136 145 158 169 186 213 239 254 274 295 310 319 323 324 326 327 327 324 321 318 317 317 317
119 123 128 130 129 128 130 133 135 136 139 136 132 127 127 126 136 142 147 158 174 188 196 200 218 237 245 252 264 280 296 305 311 316 318 319 318 318 318 319 320 321 322
122 125 126 126 127 129 129 134 139 142 143 143 143 141 142 143 152 163 175 186 193 204 215 221 238 257 262 262 260 257 271 286 292 297 304 309 313 315 316 316 318 321 323
128 131 133 133 133 138 141 144 147 149 149 150 153 158 164 169 178 190 201 210 220 232 238 240 247 257 266 272 271 266 264 270 277 280 285 292 301 305 309 312 314 316 317
130 133 137 140 144 146 148 150 152 155 158 164 169 174 180 186 198 212 221 228 236 244 252 255 259 263 269 273 274 272 273 276 277 279 281 283 292 300 306 308 311 314 315
134 137 140 143 148 152 156 160 164 167 171 177 183 188 195 203 214 224 231 236 242 250 259 264 266 268 273 277 277 277 278 279 282 282 278 281 291 298 308 308 311 313 314
Height
1499 1502 1505 1508 1512 1515 1519 1523 1527 1531 1533 1536 1539 1542 1545 1547 1549 1551 1553 1555 1556 1558 1559 1560 1561 1562 1562 1563 1564 1564 1564 1565 1565 1565 1564 1564 1564 1564 1563 1563 1562 1562 1561
1498 1501 1504 1507 1510 1514 1518 1521 1525 1529 1532 1534 1537 1540 1543 1545 1548 1550 1552 1553 1555 1556 1557 1558 1559 1560 1560 1561 1561 1561 1562 1561 1562 1561 1561 1561 1560 1560 1559 1559 1558 1558 1557
1497 1500 1502 1506 1509 1513 1516 1520 1523 1527 1530 1533 1536 1538 1541 1543 1546 1548 1550 1551 1553 1554 1555 1556 1557 1558 1558 1558 1559 1559 1559 1559 1558 1558 1558 1557 1557 1556 1556 1555 1554 1553 1552
1496 1498 1501 1504 1507 1511 1515 1518 1522 1525 1528 1531 1534 1537 1539 1541 1543 1545 1547 1549 1550 1552 1553 1554 1555 1556 1556 1556 1556 1556 1556 1556 1556 1555 1555 1554 1553 1552 1552 1551 1550 1549 1548
1494 1497 1499 1502 1505 1509 1513 1516 1520 1523 1526 1529 1532 1535 1537 1539 1541 1543 1545 1547 1548 1549 1550 1552 1553 1553 1554 1554 1554 1554 1554 1554 1553 1553 1552 1551 1550 1549 1548 1547 1546 1545 1544
1493 1495 1498 1501 1504 1507 1511 1515 1518 1522 1525 1527 1530 1533 1535 1537 1539 1541 1544 1545 1546 1547 1549 1550 1551 1552 1552 1552 1553 1553 1552 1552 1551 1550 1550 1549 1548 1547 1546 1544 1543 1541 1540
1492 1494 1497 1500 1503 1507 1510 1513 1517 1520 1523 1526 1529 1531 1534 1536 1538 1540 1542 1544 1545 1546 1548 1549 1550 1551 1551 1551 1551 1551 1551 1550 1550 1549 1548 1547 1546 1545 1544 1542 1540 1539 1537
1490 1493 1496 1499 1502 1506 1509 1512 1515 1519 1522 1524 1527 1530 1532 1535 1537 1540 1542 1543 1544 1546 1547 1549 1550 1550 1550 1551 1551 1550 1550 1549 1548 1547 1547 1546 1545 1543 1542 1540 1538 1537 1534
1489 1492 1495 1498 1501 1505 1508 1511 1514 1517 1520 1523 1526 1529 1531 1534 1537 1539 1541 1543 1544 1546 1547 1549 1550 1550 1550 1551 1550 1550 1549 1549 1548 1547 1546 1545 1543 1542 1540 1538 1536 1533 1531
1487 1491 1494 1497 1500 1504 1507 1510 1513 1516 1518 1521 1525 1528 1531 1533 1536 1539 1542 1543 1544 1546 1547 1549 1550 1550 1551 1550 1550 1550 1549 1549 1548 1547 1545 1544 1542 1540 1538 1536 1533 1531 1528
1487 1490 1493 1496 1500 1503 1506 1509 1511 1514 1517 1520 1524 1527 1530 1533 1536 1539 1541 1543 1544 1545 1547 1548 1549 1550 1550 1550 1550 1549 1548 1548 1547 1546 1544 1542 1540 1538 1536 1533 1531 1529 1526
1485 1489 1492 1496 1499 1502 1505 1508 1511 1514 1517 1520 1523 1527 1530 1533 1536 1539 1541 1543 1544 1545 1547 1548 1549 1550 1550 1550 1549 1549 1548 1547 1546 1544 1543 1540 1538 1536 1534 1531 1529 1526 1524
1484 1487 1491 1495 1499 1502 1505 1508 1511 1514 1517 1520 1524 1527 1530 1533 1536 1539 1541 1543 1545 1546 1547 1549 1550 1550 1550 1550 1549 1548 1547 1546 1545 1543 1541 1539 1536 1534 1531 1529 1526 1524 1521
1483 1487 1491 1495 1499 1503 1506 1509 1511 1515 1518 1521 1524 1528 1531 1534 1537 1540 1542 1544 1545 1546 1548 1549 1550 1550 1550 1550 1549 1548 1547 1545 1544 1542 1540 1538 1535 1532 1529 1526 1522 1519 1516
1484 1487 1491 1495 1499 1503 1508 1511 1514 1518 1521 1524 1527 1530 1533 1535 1538 1541 1543 1545 1546 1548 1549 1550 1550 1551 1551 1550 1548 1547 1547 1545 1543 1541 1539 1536 1533 1530 1527 1523 1520 1517 1513
1485 1489 1492 1496 1501 1504 1509 1513 1518 1521 1525 1528 1531 1534 1536 1539 1540 1543 1545 1546 1548 1549 1550 1550 1550 1550 1550 1550 1549 1548 1546 1545 1542 1540 1537 1535 1531 1528 1525 1522 1518 1515 1511
1486 1490 1495 1499 1503 1507 1511 1514 1519 1524 1528 1531 1534 1537 1540 1542 1544 1545 1547 1548 1549 1550 1550 1550 1551 1551 1551 1550 1549 1547 1546 1544 1542 1539 1536 1533 1530 1527 1523 1520 1516 1513 1509
1490 1494 1498 1502 1507 1511 1515 1518 1522 1525 1529 1533 1537 1540 1543 1545 1546 1548 1549 1550 1550 1550 1550 1551 1551 1551 1551 1550 1548 1547 1545 1543 1541 1538 1535 1532 1529 1525 1522 1518 1515 1511 1508
1494 1498 1503 1507 1511 1515 1519 1522 1526 1529 1532 1536 1539 1542 1545 1547 1548 1549 1550 1551 1551 1551 1551 1551 1551 1551 1550 1549 1548 1546 1545 1542 1540 1537 1534 1531 1527 1524 1521 1517 1514 1510 1506
1500 1503 1507 1511 1515 1519 1523 1527 1530 1533 1536 1539 1541 1544 1546 1547 1549 1550 1551 1551 1551 1551 1551 1551 1551 1551 1550 1549 1547 1546 1544 1541 1539 1536 1533 1530 1526 1523 1519 1516 1512 1509 1505
1504 1508 1512 1516 1520 1523 1527 1530 1533 1536 1538 1541 1543 1545 1547 1548 1549 1550 1551 1551 1552 1552 1551 1551 1551 1550 1549 1548 1547 1545 1543 1540 1538 1535 1532 1529 1525 1522 1519 1515 1511 1507 1503
1509 1512 1516 1520 1524 1527 1530 1533 1536 1538 1540 1542 1544 1546 1548 1549 1550 1551 1551 1551 1552 1552 1551 1551 1551 1550 1549 1547 1546 1543 1541 1539 1536 1533 1530 1527 1524 1521 1517 1514 1510 1506 1502
1514 1517 1520 1524 1527 1530 1532 1535 1538 1540 1542 1544 1545 1547 1548 1549 1550 1551 1551 1552 1552 1551 1551 1551 1550 1549 1548 1546 1544 1542 1540 1537 1535 1532 1529 1526 1522 1519 1515 1512 1508 1504 1500
1518 1521 1523 1526 1529 1532 1534 1537 1539 1541 1543 1544 1546 1547 1549 1550 1550 1551 1551 1551 1551 1551 1550 1550 1549 1548 1546 1544 1542 1540 1538 1535 1533 1530 1527 1523 1520 1517 1513 1510 1506 1502 1498
1522 1524 1526 1528 1531 1533 1535 1538 1540 1542 1543 1545 1546 1547 1548 1549 1550 1550 1551 1550 1550 1550 1549 1548 1547 1546 1544 1542 1540 1538 1535 1533 1530 1527 1524 1521 1518 1514 1511 1507 1503 1499 1496
1524 1526 1528 1530 1532 1534 1536 1538 1540 1542 1543 1545 1546 1547 1548 1548 1549 1549 1549 1549 1548 1548 1547 1546 1545 1543 1541 1539 1537 1535 1533 1530 1528 1525 1522 1519 1515 1512 1508 1504 1501 1497 1494